Помпеевка

Россия / Еврейская автономная область     48°22′37″N   131°07′25″E
темп.,
°C
ветер,
м/с
пор.,
м/с
влажн.,
%
обл.,
%
осадки,
мм/ч
давл.,
гПа
погр.,
м
10 мая, пн
пн1001:00+4сз1198100 0.2 100837
04:00+4зсз0099100 0.4 100926
07:00+4ююз0098100 0.4 101046
10:00+5ююз1394100 0.5 1011344
13:00+6зюз2392100 0.3 1012569
16:00+6з2393100 0.7 1012644
19:00+5зюз1297100 0.1 1013409
22:00+5з0098100 0.1 101430
11 мая, вт
вт1101:00+4юз1198100 0.0 101523
04:00+3юз009651 0.0 101511
07:00+4ю009284 0.0 101747
10:00+9ююв2370100 0.0 1016954
13:00+11ю3458100 0.1 10161396
16:00+11ююв4560100 0.1 10151391
19:00+11ююв366210 0.0 10151047
22:00+6вюв278887 0.0 1015144
12 мая, ср
ср1201:00+8юв41374100 0.0 1014621
04:00+8юв51475100 0.0 1011718
07:00+8вюв51678100 0.0 1009686
10:00+8вюв61282100 0.3 1007619
13:00+8юв61691100 3.0 10041421
16:00+9ю61393100 4.2 10031205
19:00+12ююв61278100 0.4 1000914
22:00+10ююз31183100 3.2 1000265
13 мая, чт
чт1301:00+8юз41181100 0.1 1002667
04:00+8зюз4118142 0.1 1004787
07:00+6юз39840 0.0 1007471
10:00+14з413450 0.0 10071370
13:00+19з511285 0.0 10063228
16:00+20зсз4102285 0.0 10063336
19:00+19зюз2634100 0.0 1006382
22:00+11ююв115850 0.0 100712
14 мая, пт
пт1401:00+9юв115967 0.0 100810
04:00+9юв115222 0.0 100712
07:00+11юв115096 0.0 100734
10:00+19ююв3638100 0.0 1005800
13:00+20ю61340100 0.0 10022084
16:00+17ю61357100 0.0 10001440
19:00+13ююв51394100 1.4 998868
22:00+11ю41198100 3.0 998640